N4EWE-13 Weather Reports


time (UTC)temp
C
wind
direction
speed
KPH
gust
KPH
rain 1hr
cm
rain 24hr
cm
rain mn
cm
humidity
%
barometer
mb
20260505124052 15 214 3.2 11.3 0.00 0.00 0.00 81 1017.3
20260505123054 14 281 4.8 9.7 0.00 0.00 0.00 84 1017.3
20260505122039 13 246 1.6 9.7 0.00 0.00 0.00 86 1017.2
20260505121100 13 173 1.6 6.4 0.00 0.00 0.00 87 1017.3
20260505115114 12 249 0.0 3.2 0.00 0.00 0.00 87 1017.1
20260505114032 12 243 0.0 1.6 0.00 0.00 0.00 87 1017.1
20260505113036 12 265 0.0 0.0 0.00 0.00 0.00 86 1017.1
20260505112057 11 265 0.0 0.0 0.00 0.00 0.00 86 1017.1
20260505111053 11 260 0.0 1.6 0.00 0.00 0.00 85 1016.8
20260505102052 12 254 0.0 1.6 0.00 0.00 0.00 82 1016.3
20260505101113 12 254 0.0 1.6 0.00 0.00 0.00 81 1016.3
20260505100037 12 243 0.0 0.0 0.00 0.00 0.00 80 1016.3
20260505095041 12 243 0.0 1.6 0.00 0.00 0.00 80 1016.0
20260505094051 12 243 0.0 1.6 0.00 0.00 0.00 79 1016.0
20260505093028 13 243 0.0 1.6 0.00 0.00 0.00 79 1015.8
20260505092052 13 243 0.0 1.6 0.00 0.00 0.00 79 1015.8
20260505091110 13 241 0.0 3.2 0.00 0.00 0.00 79 1015.7
20260505090053 13 233 0.0 1.6 0.00 0.00 0.00 78 1015.8
20260505085048 13 232 0.0 3.2 0.00 0.00 0.00 78 1015.7
20260505084027 13 242 0.0 1.6 0.00 0.00 0.00 77 1015.5
20260505083052 13 243 0.0 3.2 0.00 0.00 0.00 77 1015.8
20260505082048 13 219 0.0 3.2 0.00 0.00 0.00 76 1015.6
20260505081128 14 232 0.0 4.8 0.00 0.00 0.00 75 1015.6
20260505080112 14 243 0.0 1.6 0.00 0.00 0.00 75 1015.5
20260505075047 15 229 0.0 3.2 0.00 0.00 0.00 74 1015.5
20260505074047 15 226 0.0 1.6 0.00 0.00 0.00 74 1015.5
20260505073042 15 218 0.0 1.6 0.00 0.00 0.00 73 1015.4
20260505072037 15 212 0.0 1.6 0.00 0.00 0.00 73 1015.3
20260505071057 15 196 1.6 3.2 0.00 0.00 0.00 72 1015.5
20260505070032 15 251 0.0 4.8 0.00 0.00 0.00 71 1015.3
20260505065026 16 265 1.6 4.8 0.00 0.00 0.00 71 1015.3
20260505064026 16 223 1.6 4.8 0.00 0.00 0.00 70 1015.3
20260505063053 16 223 0.0 4.8 0.00 0.00 0.00 70 1015.3
20260505062027 16 257 1.6 8.0 0.00 0.00 0.00 69 1015.2
20260505061106 16 220 3.2 6.4 0.00 0.00 0.00 69 1015.3
20260505060042 16 220 3.2 6.4 0.00 0.00 0.00 69 1015.3
20260505055037 16 207 1.6 6.4 0.00 0.00 0.00 68 1015.3
20260505054040 17 250 3.2 8.0 0.00 0.00 0.00 68 1015.3
20260505053038 17 254 3.2 9.7 0.00 0.00 0.00 67 1015.4
20260505052052 17 246 4.8 12.9 0.00 0.00 0.00 67 1015.4
20260505051102 17 123 1.6 11.3 0.00 0.00 0.00 67 1015.3
20260505041101 18 144 3.2 9.7 0.00 0.00 0.00 65 1015.2
20260505040056 18 310 3.2 11.3 0.00 0.00 0.00 64 1015.2
20260505035025 18 271 3.2 9.7 0.00 0.00 0.00 64 1015.2
20260505034049 18 258 4.8 11.3 0.00 0.00 0.00 64 1015.2
20260505033026 18 192 3.2 11.3 0.00 0.00 0.00 63 1015.2
20260505032053 18 227 3.2 11.3 0.00 0.00 0.00 62 1015.2
20260505031110 19 270 4.8 8.0 0.00 0.00 0.00 61 1015.3
20260505030026 19 194 3.2 14.5 0.00 0.00 0.00 61 1015.2
20260505025053 19 288 4.8 14.5 0.00 0.00 0.00 60 1015.2
20260505024058 19 269 4.8 12.9 0.00 0.00 0.00 57 1015.2
20260505023038 19 256 1.6 6.4 0.00 0.00 0.00 54 1015.0
20260505022046 19 249 3.2 11.3 0.00 0.00 0.00 52 1015.0
20260505021058 19 186 1.6 4.8 0.00 0.00 0.00 50 1014.9
20260505020043 19 267 1.6 4.8 0.00 0.00 0.00 50 1014.9
20260505015051 20 252 1.6 4.8 0.00 0.00 0.00 49 1014.7
20260505014027 20 195 0.0 4.8 0.00 0.00 0.00 49 1014.6
20260505013034 20 227 0.0 4.8 0.00 0.00 0.00 48 1014.5
20260505012041 20 287 0.0 3.2 0.00 0.00 0.00 47 1014.3
20260505011101 20 298 0.0 1.6 0.00 0.00 0.00 47 1014.3
20260505010037 20 292 0.0 1.6 0.00 0.00 0.00 47 1014.1
20260505005045 21 250 0.0 3.2 0.00 0.00 0.00 46 1014.0
20260505004026 21 221 0.0 1.6 0.00 0.00 0.00 44 1014.0
20260505003048 21 221 0.0 4.8 0.00 0.00 0.00 43 1013.9
20260505002027 22 236 0.0 0.0 0.00 0.00 0.00 44 1013.9
20260505001048 22 236 0.0 0.0 0.00 0.00 0.00 41 1013.7
20260505000049 23 236 0.0 0.0 0.00 0.00 0.00 40 1013.7
20260504235028 23 236 0.0 1.6 0.00 0.00 0.00 40 1013.5
20260504234036 24 222 0.0 1.6 0.00 0.00 0.00 38 1013.5
20260504233034 24 171 0.0 4.8 0.00 0.00 0.00 37 1013.4
20260504232028 24 307 0.0 3.2 0.00 0.00 0.00 36 1013.5
20260504231107 25 312 3.2 6.4 0.00 0.00 0.00 36 1013.4
20260504230038 25 269 1.6 9.7 0.00 0.00 0.00 34 1013.4
20260504225032 25 246 1.6 9.7 0.00 0.00 0.00 34 1013.4
20260504224042 26 121 3.2 9.7 0.00 0.00 0.00 33 1013.5
20260504223041 26 333 3.2 8.0 0.00 0.00 0.00 32 1013.5
20260504222036 26 220 1.6 12.9 0.00 0.00 0.00 33 1013.5
20260504221056 26 315 4.8 9.7 0.00 0.00 0.00 33 1013.5
20260504220032 27 246 6.4 14.5 0.00 0.00 0.00 31 1013.3
20260504215055 27 198 4.8 11.3 0.00 0.00 0.00 31 1013.4
20260504214036 27 265 3.2 9.7 0.00 0.00 0.00 31 1013.5
20260504213033 27 167 3.2 11.3 0.00 0.00 0.00 32 1013.5
20260504212029 27 219 3.2 16.1 0.00 0.00 0.00 31 1013.5
20260504211111 28 234 3.2 6.4 0.00 0.00 0.00 30 1013.6
20260504210045 28 275 4.8 12.9 0.00 0.00 0.00 31 1013.5
20260504205041 27 215 4.8 12.9 0.00 0.00 0.00 31 1013.7
20260504204042 27 261 3.2 9.7 0.00 0.00 0.00 32 1013.6
20260504203039 27 203 6.4 14.5 0.00 0.00 0.00 31 1013.8
20260504202035 27 259 4.8 12.9 0.00 0.00 0.00 32 1013.9
20260504201055 27 180 1.6 8.0 0.00 0.00 0.00 31 1014.0
20260504200050 27 294 6.4 14.5 0.00 0.00 0.00 31 1014.0
20260504195046 27 34 3.2 11.3 0.00 0.00 0.00 32 1014.0
20260504194045 27 74 6.4 17.7 0.00 0.00 0.00 32 1014.3
20260504193041 27 279 3.2 12.9 0.00 0.00 0.00 32 1014.4
20260504192041 27 167 3.2 12.9 0.00 0.00 0.00 33 1014.6
20260504191114 27 324 4.8 12.9 0.00 0.00 0.00 33 1014.5
20260504190052 27 321 6.4 14.5 0.00 0.00 0.00 33 1014.6
20260504185028 26 293 3.2 14.5 0.00 0.00 0.00 33 1014.6
20260504184051 26 50 4.8 11.3 0.00 0.00 0.00 32 1014.6
20260504183047 26 261 3.2 11.3 0.00 0.00 0.00 32 1014.8
20260504182051 26 174 3.2 9.7 0.00 0.00 0.00 33 1014.9
20260504181130 26 140 3.2 16.1 0.00 0.00 0.00 33 1015.1
20260504180043 26 326 3.2 12.9 0.00 0.00 0.00 32 1015.2
20260504175040 26 239 3.2 11.3 0.00 0.00 0.00 31 1015.3
20260504174042 26 214 4.8 11.3 0.00 0.00 0.00 34 1015.4
20260504173034 25 252 3.2 14.5 0.00 0.00 0.00 33 1015.4
20260504172029 25 231 4.8 11.3 0.00 0.00 0.00 34 1015.4
20260504171055 25 173 4.8 16.1 0.00 0.00 0.00 34 1015.6
20260504151048 20 267 4.8 11.3 0.00 0.00 0.00 50 1016.7
20260504150112 20 302 3.2 9.7 0.00 0.00 0.00 52 1016.6
20260504141101 15 243 3.2 12.9 0.00 0.00 0.00 72 1017.0